Temperature
6 6 6 6 6 6 7 7 7 7 7 8 8 8 8 7 7 7 7 6 6 7 7 7 8 8 8 9 9 9 10 10 10 10 11 11 11 11
6 6 6 6 6 6 6 6 6 6 7 7 7 7 7 7 7 6 6 6 6 6 6 6 7 7 7 8 8 9 9 9 10 10 10 10 10 11
5 4 5 5 5 5 5 5 6 6 6 6 7 7 7 7 6 6 6 6 6 5 5 6 6 6 7 7 7 8 8 8 9 9 10 10 10 10
3 3 3 3 4 4 4 5 5 5 5 6 6 6 6 6 6 6 5 5 5 5 5 5 5 6 6 6 7 7 7 8 8 8 9 9 9 9
2 2 2 2 3 3 3 4 4 4 4 5 5 5 5 5 5 5 4 4 4 4 4 4 4 5 5 6 6 6 7 7 7 7 8 8 8 9
0 1 1 1 1 1 2 2 3 3 4 4 4 4 4 4 4 4 4 3 3 3 3 4 4 3 4 4 5 5 6 6 6 7 7 7 8 8
-1 -0 -0 -0 -0 -0 0 1 1 2 2 3 3 3 3 3 3 3 3 2 3 3 3 3 3 3 3 4 4 5 5 5 5 6 6 6 7 7
-2 -2 -2 -2 -2 -1 -1 -1 -0 0 1 1 2 2 2 2 2 1 1 1 2 2 1 2 2 2 3 3 3 3 3 4 4 5 5 6 6 6
-4 -4 -4 -4 -4 -3 -2 -2 -2 -1 -1 -0 -0 -0 -0 0 0 0 0 0 1 1 0 1 1 1 1 1 1 1 2 2 2 3 4 4 5 5
-5 -5 -5 -5 -5 -4 -4 -4 -4 -3 -3 -2 -2 -2 -2 -1 -1 -1 -1 -1 -1 -1 -2 -2 -1 -1 -1 0 1 1 0 1 1 2 2 3 4 4
-7 -7 -7 -7 -7 -6 -5 -6 -5 -5 -5 -4 -4 -3 -3 -3 -3 -3 -3 -3 -3 -2 -2 -3 -2 -2 -2 -1 -0 -0 -0 -0 0 1 1 1 2 3
-7 -8 -8 -8 -8 -7 -7 -7 -6 -6 -6 -6 -5 -5 -5 -5 -5 -5 -5 -5 -5 -4 -4 -4 -4 -3 -3 -2 -2 -1 -1 -0 0 0 1 1 1 2
-8 -8 -8 -8 -8 -8 -8 -7 -7 -7 -6 -6 -6 -7 -7 -7 -6 -6 -6 -6 -6 -6 -5 -5 -5 -4 -5 -4 -2 -2 -1 -1 -0 0 1 1 1 1
-9 -9 -9 -9 -9 -8 -8 -8 -8 -7 -7 -7 -7 -8 -8 -7 -7 -7 -7 -6 -6 -6 -6 -6 -6 -5 -6 -6 -6 -3 -2 -2 -1 -0 0 0 1 1
-9 -9 -9 -9 -9 -9 -9 -9 -9 -8 -8 -8 -8 -8 -8 -8 -8 -8 -7 -7 -7 -7 -7 -7 -7 -7 -8 -8 -8 -7 -5 -3 -2 -2 -1 -1 -0 0
-10 -10 -10 -10 -10 -10 -10 -10 -10 -10 -10 -9 -9 -9 -9 -9 -9 -9 -8 -8 -7 -7 -7 -7 -8 -8 -8 -8 -8 -8 -6 -5 -4 -3 -3 -2 -1 -0
-10 -10 -11 -11 -11 -11 -11 -11 -11 -11 -11 -11 -11 -10 -10 -10 -10 -10 -10 -9 -9 -8 -7 -7 -8 -8 -8 -8 -8 -6 -6 -5 -5 -5 -5 -4 -2 -1
-11 -11 -12 -12 -12 -12 -12 -12 -12 -12 -12 -12 -12 -12 -11 -11 -11 -11 -11 -11 -11 -10 -9 -9 -8 -8 -8 -7 -7 -7 -7 -7 -7 -6 -6 -5 -4 -2
-12 -12 -12 -12 -13 -13 -13 -13 -13 -13 -13 -13 -13 -13 -13 -13 -12 -12 -12 -12 -12 -12 -11 -10 -10 -11 -12 -11 -10 -9 -9 -8 -7 -7 -6 -5 -5 -4
-13 -13 -13 -13 -13 -14 -14 -14 -14 -14 -14 -14 -14 -14 -14 -14 -13 -13 -13 -13 -13 -13 -12 -10 -10 -11 -12 -12 -11 -11 -8 -8 -8 -8 -7 -6 -5 -4
-14 -14 -14 -14 -14 -14 -14 -15 -15 -15 -15 -15 -15 -15 -14 -14 -14 -14 -14 -13 -13 -13 -12 -11 -11 -12 -13 -12 -12 -11 -8 -7 -8 -9 -9 -8 -7 -6
-14 -14 -14 -14 -15 -15 -15 -15 -15 -15 -15 -15 -15 -15 -15 -15 -15 -15 -15 -14 -14 -13 -13 -12 -11 -12 -12 -12 -12 -11 -9 -7 -7 -8 -8 -8 -8 -7
-15 -15 -15 -15 -15 -15 -15 -16 -16 -16 -16 -16 -16 -16 -16 -16 -15 -15 -15 -14 -14 -13 -13 -13 -12 -12 -12 -12 -12 -11 -10 -8 -8 -7 -7 -6 -7 -6
Wind_Speed
3 3 3 3 3 3 3 4 4 3 3 4 3 4 4 9 9 4 3 9 4 3 2 2 3 5 6 8 9 9 9 9 10 11 13 15 16 16
1 1 2 2 3 3 4 4 4 5 5 4 3 3 4 5 10 7 5 5 2 4 4 2 3 5 7 8 9 10 11 11 11 12 13 14 16 17
3 2 3 3 2 3 3 4 4 5 6 5 4 4 4 6 5 6 5 2 2 1 3 2 5 8 9 9 9 10 11 12 13 13 13 14 16 17
3 3 3 3 3 2 2 3 4 5 6 6 5 4 4 5 6 5 3 2 2 2 2 4 8 10 11 11 10 10 11 12 12 12 13 14 15 16
7 8 7 7 6 5 5 4 3 3 3 5 5 3 2 3 5 5 4 3 4 6 7 8 10 12 13 12 12 12 11 11 11 10 11 13 14 16
8 8 7 7 6 6 6 6 5 4 2 1 2 2 2 3 4 4 4 4 4 6 9 11 11 11 11 12 12 13 12 11 10 10 11 12 13 15
7 6 7 8 9 7 6 6 6 5 4 3 2 2 2 3 3 3 3 3 3 3 3 5 5 6 9 14 14 15 13 11 11 12 13 13 14 15
5 4 3 5 7 9 8 7 6 5 4 3 3 3 4 4 4 3 2 2 2 3 4 6 6 7 5 9 15 17 15 13 13 14 15 16 17 18
5 6 5 5 7 6 7 5 3 3 4 3 3 4 4 4 3 3 4 2 2 4 5 6 5 6 5 11 16 17 17 17 17 17 17 18 19 20
6 7 7 6 6 6 6 5 4 2 4 5 5 4 4 4 3 3 3 4 5 5 4 5 4 5 7 6 15 17 16 17 18 18 18 19 20 21
5 6 6 7 9 9 8 6 5 6 6 7 6 4 4 4 2 1 2 3 3 3 4 3 4 4 4 5 8 14 18 22 22 22 21 21 21 20
3 5 7 7 9 9 6 6 6 6 7 8 7 7 5 5 6 4 2 2 2 3 4 5 4 5 5 4 5 11 16 20 22 21 22 23 23 14
4 4 5 8 8 8 6 5 5 5 5 5 4 4 5 6 7 6 5 4 2 3 4 5 4 4 4 5 5 6 7 8 11 15 20 23 24 18
4 4 4 7 8 7 4 5 7 6 3 4 4 4 5 5 5 5 5 4 4 5 7 5 4 5 6 8 7 6 7 8 10 12 10 19 19 21
0 2 3 5 6 5 4 5 5 4 4 4 4 3 4 4 4 4 4 4 5 8 9 8 6 7 7 9 9 10 10 8 9 8 8 10 11 11
2 1 3 4 2 4 4 4 4 3 3 2 2 3 3 3 3 3 3 4 4 4 6 10 9 7 6 8 10 11 9 7 8 10 11 12 11 8
2 2 2 1 1 2 3 4 4 4 4 3 3 3 3 3 3 4 4 4 4 5 5 5 6 8 8 9 10 11 10 10 10 11 11 12 11 9
3 3 3 1 2 3 3 3 3 3 3 3 3 4 4 4 4 4 4 4 5 6 6 6 5 6 5 6 10 10 9 9 9 9 9 10 12 9
2 3 2 2 1 1 1 1 2 2 1 2 3 4 4 4 5 5 5 5 6 6 6 6 6 7 10 10 6 8 8 8 9 10 10 10 12 12
2 2 2 2 2 1 1 1 1 1 2 2 3 4 4 5 6 6 5 6 7 8 8 6 5 6 10 12 11 11 17 13 11 12 12 11 11 15
3 3 2 2 1 1 1 1 2 2 3 3 4 5 5 5 6 6 6 11 10 8 9 9 8 14 11 9 10 9 12 17 17 13 11 12 13 12
4 4 3 3 2 2 2 3 3 3 4 4 5 5 5 5 6 7 7 8 8 8 10 10 9 9 9 12 13 14 15 15 15 22 23 22 14 8
5 5 4 4 3 3 3 4 4 4 5 5 5 5 5 5 6 7 8 9 10 10 11 11 10 9 10 11 13 13 16 17 13 12 13 19 24 26
Wind_Direction
219 222 217 218 215 215 203 179 177 213 256 255 239 209 157 139 147 132 113 147 177 217 244 294 319 319 310 297 288 287 290 293 291 286 280 275 273 275
302 284 273 246 229 218 210 211 196 190 216 234 242 230 178 152 154 156 153 164 255 261 233 252 309 315 308 299 290 283 283 286 290 291 288 281 274 269
317 284 263 262 260 247 222 214 217 203 214 234 238 239 190 162 148 141 116 96 349 347 195 245 299 302 299 294 289 284 281 281 283 288 292 292 286 279
8 24 11 6 357 321 284 243 231 219 207 219 233 238 205 164 135 120 100 59 356 320 242 281 295 297 296 292 286 283 280 278 279 284 290 293 292 286
59 60 46 44 34 17 11 355 308 267 227 212 222 218 178 118 105 89 69 38 9 359 343 327 313 303 296 294 289 284 280 276 276 280 288 294 295 292
66 63 55 48 37 28 37 18 5 3 358 222 203 173 126 94 98 90 64 33 5 344 328 315 313 326 327 326 315 298 283 276 276 283 290 295 298 298
68 66 62 52 48 54 59 39 25 24 26 38 58 74 77 69 80 85 79 30 337 311 327 330 340 337 331 323 315 304 293 277 276 284 287 289 293 298
66 57 72 67 45 43 49 49 45 43 35 35 35 48 61 64 63 65 68 48 323 337 1 320 318 306 296 296 294 296 298 288 281 283 285 286 286 289
56 38 26 36 56 32 16 20 37 68 73 63 32 26 48 47 49 40 32 18 285 302 320 289 281 283 285 301 312 321 323 315 301 292 289 288 286 285
63 51 24 14 43 28 360 349 353 38 79 65 59 37 41 46 46 17 339 317 295 287 288 279 291 291 304 311 317 321 339 350 344 331 316 302 290 283
82 83 50 34 32 28 11 2 21 27 45 40 24 357 338 324 309 16 338 331 316 311 325 309 315 320 311 304 318 342 349 341 335 332 328 323 312 297
54 104 80 50 26 22 12 12 39 29 10 3 360 355 6 20 41 66 36 16 352 310 357 4 347 354 324 312 342 343 335 325 323 325 325 323 323 319
17 66 71 48 17 5 12 24 22 13 348 340 346 3 30 45 44 41 38 37 8 294 328 360 338 337 302 307 318 311 308 318 324 319 315 313 312 313
21 63 46 24 359 349 3 359 357 1 1 11 21 30 39 34 19 3 346 331 296 271 282 289 273 285 292 294 294 300 310 307 305 302 301 304 307 309
26 44 15 1 353 347 349 348 1 29 41 29 21 28 28 6 346 334 334 331 315 302 299 291 269 274 275 283 288 295 301 294 284 291 305 313 309 310
353 357 330 321 295 289 328 17 42 34 39 20 1 11 360 343 334 338 333 325 312 298 301 310 310 302 291 285 287 289 288 286 297 298 297 295 294 289
9 338 306 316 21 26 29 36 37 25 19 23 24 2 340 333 329 329 318 311 301 300 307 303 296 295 290 287 283 277 278 281 282 287 289 289 288 286
337 317 314 355 40 42 34 27 19 7 18 18 0 339 326 320 313 309 304 301 297 294 295 299 306 310 299 276 257 266 270 275 282 288 294 298 297 295
310 311 337 14 22 22 3 322 309 333 0 325 303 303 305 307 306 304 301 299 295 291 290 292 299 305 304 300 286 290 301 302 304 302 298 294 294 297
299 282 269 262 248 239 247 271 297 319 311 299 297 298 298 298 296 295 295 295 298 298 295 286 278 282 287 292 293 291 286 280 282 283 285 285 283 287
315 312 302 288 270 243 245 251 251 257 266 270 272 273 274 275 280 282 288 294 297 295 293 290 283 294 293 290 285 279 279 278 274 273 277 281 285 286
322 317 312 303 290 264 255 251 249 249 256 257 258 259 261 265 272 277 279 283 284 283 284 286 285 286 281 282 284 287 288 287 280 278 272 267 269 269
336 329 324 318 309 293 274 263 257 251 250 252 254 254 254 258 261 267 272 276 280 282 286 289 288 280 279 279 282 283 283 287 290 286 277 267 264 262
Height
1440 1441 1442 1444 1445 1447 1449 1451 1453 1454 1455 1458 1460 1461 1462 1462 1463 1464 1464 1464 1464 1465 1465 1466 1467 1467 1468 1469 1470 1471 1473 1473 1475 1476 1477 1479 1480 1482
1435 1436 1437 1439 1440 1442 1444 1446 1448 1449 1451 1453 1456 1458 1458 1458 1458 1459 1460 1461 1461 1461 1461 1462 1462 1463 1463 1464 1465 1466 1467 1468 1469 1469 1470 1471 1473 1475
1428 1429 1431 1433 1434 1436 1438 1439 1441 1444 1445 1448 1451 1453 1454 1453 1453 1454 1456 1456 1457 1457 1457 1458 1458 1458 1458 1459 1459 1460 1461 1461 1462 1463 1464 1465 1465 1467
1421 1423 1424 1426 1427 1429 1431 1433 1435 1438 1440 1441 1444 1447 1448 1448 1447 1448 1450 1451 1452 1453 1454 1454 1454 1454 1454 1454 1454 1454 1455 1455 1456 1456 1457 1458 1459 1459
1416 1417 1418 1420 1421 1422 1424 1426 1428 1431 1433 1434 1437 1440 1441 1441 1441 1442 1444 1445 1447 1448 1449 1449 1449 1449 1449 1448 1448 1449 1449 1449 1449 1449 1450 1450 1451 1452
1413 1414 1414 1415 1416 1417 1419 1420 1422 1424 1426 1428 1430 1432 1433 1434 1434 1435 1438 1440 1441 1443 1444 1444 1444 1443 1443 1443 1443 1443 1443 1442 1442 1442 1442 1443 1443 1443
1409 1410 1411 1412 1412 1413 1415 1416 1417 1418 1420 1421 1424 1426 1426 1427 1428 1429 1431 1433 1436 1437 1437 1438 1438 1437 1437 1437 1436 1436 1435 1435 1435 1435 1435 1435 1435 1435
1406 1407 1408 1408 1409 1410 1411 1412 1413 1414 1415 1416 1418 1419 1420 1421 1422 1424 1426 1428 1429 1432 1431 1431 1431 1430 1429 1428 1428 1428 1428 1427 1428 1427 1427 1426 1426 1426
1405 1406 1407 1407 1406 1407 1408 1409 1410 1411 1412 1412 1413 1413 1414 1415 1418 1419 1421 1422 1423 1424 1424 1422 1423 1421 1421 1420 1420 1420 1420 1420 1420 1419 1418 1418 1418 1418
1404 1404 1405 1405 1405 1405 1406 1406 1407 1407 1407 1408 1409 1409 1410 1411 1413 1414 1415 1416 1417 1418 1418 1416 1415 1415 1414 1413 1414 1414 1413 1412 1412 1411 1410 1410 1409 1409
1402 1402 1403 1403 1403 1402 1402 1403 1404 1404 1404 1404 1405 1405 1406 1407 1408 1409 1410 1411 1411 1412 1413 1412 1410 1408 1407 1408 1408 1408 1407 1407 1406 1405 1404 1403 1402 1401
1402 1401 1401 1402 1401 1400 1400 1400 1400 1400 1401 1401 1401 1402 1403 1403 1404 1405 1406 1407 1407 1408 1409 1408 1407 1405 1402 1402 1402 1403 1402 1401 1400 1399 1398 1397 1397 1395
1402 1401 1400 1400 1400 1399 1399 1399 1398 1399 1399 1399 1399 1400 1400 1401 1402 1403 1403 1404 1404 1404 1405 1403 1402 1401 1400 1396 1394 1396 1395 1394 1392 1392 1392 1391 1391 1390
1401 1400 1400 1399 1398 1398 1397 1397 1397 1397 1397 1397 1397 1398 1398 1398 1399 1400 1400 1400 1400 1400 1400 1399 1397 1396 1394 1391 1388 1387 1387 1387 1386 1384 1384 1383 1382 1382
1399 1398 1398 1397 1397 1396 1396 1396 1395 1395 1394 1395 1395 1395 1395 1395 1395 1395 1395 1395 1395 1395 1395 1394 1393 1392 1390 1388 1384 1382 1380 1379 1379 1378 1376 1375 1374 1373
1396 1396 1396 1396 1395 1395 1394 1394 1393 1393 1392 1392 1392 1392 1392 1391 1391 1391 1390 1390 1390 1390 1390 1389 1388 1386 1384 1382 1380 1376 1376 1374 1372 1372 1369 1367 1367 1366
1394 1394 1394 1394 1393 1393 1392 1392 1391 1391 1390 1389 1389 1388 1388 1387 1387 1386 1386 1385 1384 1383 1383 1383 1382 1380 1377 1375 1373 1371 1370 1368 1367 1365 1363 1360 1359 1359
1391 1391 1391 1391 1390 1390 1389 1389 1388 1388 1387 1386 1386 1385 1384 1383 1382 1382 1381 1381 1379 1378 1377 1376 1375 1372 1370 1368 1368 1366 1365 1363 1362 1361 1359 1356 1352 1352
1388 1387 1387 1387 1387 1387 1386 1385 1385 1384 1383 1383 1382 1381 1380 1379 1378 1377 1376 1376 1375 1374 1373 1372 1370 1368 1365 1362 1361 1362 1361 1358 1356 1355 1353 1351 1347 1345
1385 1385 1385 1384 1384 1383 1383 1382 1382 1381 1380 1379 1379 1378 1376 1375 1374 1373 1372 1371 1370 1369 1367 1367 1366 1364 1362 1359 1355 1353 1354 1351 1349 1346 1345 1342 1340 1339
1383 1382 1382 1381 1381 1380 1380 1379 1378 1377 1377 1376 1375 1374 1372 1371 1370 1369 1368 1367 1366 1364 1362 1360 1359 1359 1356 1353 1349 1344 1345 1345 1343 1341 1338 1336 1332 1330
1380 1379 1378 1378 1377 1376 1376 1375 1374 1374 1373 1372 1371 1369 1368 1367 1365 1364 1363 1362 1360 1358 1356 1354 1352 1351 1350 1347 1343 1339 1336 1334 1334 1333 1332 1330 1328 1323
1376 1375 1374 1373 1373 1372 1371 1371 1370 1369 1368 1367 1366 1364 1363 1361 1360 1359 1358 1357 1355 1353 1351 1348 1346 1345 1343 1341 1338 1333 1330 1327 1324 1322 1320 1320 1319 1317